Location: Napa Junction
(38.1874°N, 122.2508°W)
Time: 13:01:33
(UTC+00:00)

Cosmos 1606 Rocket - Pass Details

Date: 08 September 2024
Orbit: 599 x 626 km, 82.5° (Epoch: 12 October)

Event Time Altitude Azimuth Distance (km) Brightness Sun altitude
Rises 12:28:44 0° 180° (S) 2,836 6.8 -15.4°
Reaches altitude 10° 12:30:56 10° 178° (S) 1,940 5.9 -15.0°
Maximum altitude 12:35:11 70° 96° (E) 648 3.8 -14.2°
Drops below altitude 10° 12:39:31 10° 12° (NNE) 1,970 6.5 -13.4°
Sets 12:41:46 0° 10° (N) 2,883 7.4 -13.0°
